Year,Month,Day,Hour,Minute,Value (Times are PST for temperature in C)
2013,12,13,00,00,-0.70
2013,12,13,00,04,-0.70
2013,12,13,00,05,-0.70
2013,12,13,00,06,-0.70
2013,12,13,00,07,-0.70
2013,12,13,00,08,-0.70
2013,12,13,00,09,-0.70
2013,12,13,00,10,-0.70
2013,12,13,00,11,-0.70
2013,12,13,00,12,-0.70
2013,12,13,00,13,-0.70
2013,12,13,00,14,-0.70
2013,12,13,00,15,-0.70
2013,12,13,00,19,-0.70
2013,12,13,00,20,-0.70
2013,12,13,00,21,-0.70
2013,12,13,00,22,-0.70
2013,12,13,00,23,-0.70
2013,12,13,00,24,-0.70
2013,12,13,00,25,-0.70
2013,12,13,00,26,-0.70
2013,12,13,00,27,-0.70
2013,12,13,00,28,-0.70
2013,12,13,00,29,-0.70
2013,12,13,00,30,-0.70
2013,12,13,00,34,-0.60
2013,12,13,00,35,-0.60
2013,12,13,00,36,-0.60
2013,12,13,00,37,-0.60
2013,12,13,00,38,-0.60
2013,12,13,00,39,-0.60
2013,12,13,00,40,-0.60
2013,12,13,00,41,-0.60
2013,12,13,00,42,-0.60
2013,12,13,00,43,-0.60
2013,12,13,00,44,-0.60
2013,12,13,00,45,-0.60
2013,12,13,00,49,-0.60
2013,12,13,00,50,-0.60
2013,12,13,00,51,-0.60
2013,12,13,00,52,-0.60
2013,12,13,00,53,-0.60
2013,12,13,00,54,-0.60
2013,12,13,00,55,-0.60
2013,12,13,00,56,-0.60
2013,12,13,00,57,-0.60
2013,12,13,00,58,-0.60
2013,12,13,00,59,-0.60
2013,12,13,01,00,-0.60
2013,12,13,01,04,-0.40
2013,12,13,01,05,-0.40
2013,12,13,01,06,-0.40
2013,12,13,01,07,-0.40
2013,12,13,01,08,-0.40
2013,12,13,01,09,-0.40
2013,12,13,01,10,-0.40
2013,12,13,01,11,-0.40
2013,12,13,01,12,-0.40
2013,12,13,01,13,-0.40
2013,12,13,01,14,-0.40
2013,12,13,01,15,-0.40
2013,12,13,01,19,-0.40
2013,12,13,01,20,-0.40
2013,12,13,01,21,-0.40
2013,12,13,01,22,-0.40
2013,12,13,01,23,-0.40
2013,12,13,01,24,-0.40
2013,12,13,01,25,-0.40
2013,12,13,01,26,-0.40
2013,12,13,01,27,-0.40
2013,12,13,01,28,-0.40
2013,12,13,01,29,-0.40
2013,12,13,01,30,-0.40
2013,12,13,01,34,-0.40
2013,12,13,01,35,-0.40
2013,12,13,01,36,-0.40
2013,12,13,01,37,-0.40
2013,12,13,01,38,-0.40
2013,12,13,01,39,-0.40
2013,12,13,01,40,-0.40
2013,12,13,01,41,-0.40
2013,12,13,01,42,-0.40
2013,12,13,01,43,-0.40
2013,12,13,01,44,-0.40
2013,12,13,01,45,-0.40
2013,12,13,01,49,-0.40
2013,12,13,01,50,-0.40
2013,12,13,01,51,-0.40
2013,12,13,01,52,-0.40
2013,12,13,01,53,-0.40
2013,12,13,01,54,-0.40
2013,12,13,01,55,-0.40
2013,12,13,01,56,-0.40
2013,12,13,01,57,-0.40
2013,12,13,01,58,-0.40
2013,12,13,01,59,-0.40
2013,12,13,02,00,-0.40
2013,12,13,02,04,-0.50
2013,12,13,02,05,-0.50
2013,12,13,02,06,-0.50
2013,12,13,02,07,-0.50
2013,12,13,02,08,-0.50
2013,12,13,02,09,-0.50
2013,12,13,02,10,-0.50
2013,12,13,02,11,-0.50
2013,12,13,02,12,-0.50
2013,12,13,02,13,-0.50
2013,12,13,02,14,-0.50
2013,12,13,02,15,-0.50
2013,12,13,02,19,-0.70
2013,12,13,02,20,-0.70
2013,12,13,02,21,-0.70
2013,12,13,02,22,-0.70
2013,12,13,02,23,-0.70
2013,12,13,02,24,-0.70
2013,12,13,02,25,-0.70
2013,12,13,02,26,-0.70
2013,12,13,02,27,-0.70
2013,12,13,02,28,-0.70
2013,12,13,02,29,-0.70
2013,12,13,02,30,-0.70
2013,12,13,02,34,-0.70
2013,12,13,02,35,-0.70
2013,12,13,02,36,-0.70
2013,12,13,02,37,-0.70
2013,12,13,02,38,-0.70
2013,12,13,02,39,-0.70
2013,12,13,02,40,-0.70
2013,12,13,02,41,-0.70
2013,12,13,02,42,-0.70
2013,12,13,02,43,-0.70
2013,12,13,02,44,-0.70
2013,12,13,02,45,-0.70
2013,12,13,02,49,-0.80
2013,12,13,02,50,-0.80
2013,12,13,02,51,-0.80
2013,12,13,02,52,-0.80
2013,12,13,02,53,-0.80
2013,12,13,02,54,-0.80
2013,12,13,02,55,-0.80
2013,12,13,02,56,-0.80
2013,12,13,02,57,-0.80
2013,12,13,02,58,-0.80
2013,12,13,02,59,-0.80
2013,12,13,03,00,-0.80
2013,12,13,03,04,-0.80
2013,12,13,03,05,-0.80
2013,12,13,03,06,-0.80
2013,12,13,03,07,-0.80
2013,12,13,03,08,-0.80
2013,12,13,03,09,-0.80
2013,12,13,03,10,-0.80
2013,12,13,03,11,-0.80
2013,12,13,03,12,-0.80
2013,12,13,03,13,-0.80
2013,12,13,03,14,-0.80
2013,12,13,03,15,-0.80
2013,12,13,03,19,-0.80
2013,12,13,03,20,-0.80
2013,12,13,03,21,-0.80
2013,12,13,03,22,-0.80
2013,12,13,03,23,-0.80
2013,12,13,03,24,-0.80
2013,12,13,03,25,-0.80
2013,12,13,03,26,-0.80
2013,12,13,03,27,-0.80
2013,12,13,03,28,-0.80
2013,12,13,03,29,-0.80
2013,12,13,03,30,-0.80
2013,12,13,03,34,-0.80
2013,12,13,03,35,-0.80
2013,12,13,03,36,-0.80
2013,12,13,03,37,-0.80
2013,12,13,03,38,-0.80
2013,12,13,03,39,-0.80
2013,12,13,03,40,-0.80
2013,12,13,03,41,-0.80
2013,12,13,03,42,-0.80
2013,12,13,03,43,-0.80
2013,12,13,03,44,-0.80
2013,12,13,03,45,-0.80
2013,12,13,03,49,-0.80
2013,12,13,03,50,-0.80
2013,12,13,03,51,-0.80
2013,12,13,03,52,-0.80
2013,12,13,03,53,-0.80
2013,12,13,03,54,-0.80
2013,12,13,03,55,-0.80
2013,12,13,03,56,-0.80
2013,12,13,03,57,-0.80
2013,12,13,03,58,-0.80
2013,12,13,03,59,-0.80
2013,12,13,04,00,-0.80
2013,12,13,04,04,-0.70
2013,12,13,04,05,-0.70
2013,12,13,04,06,-0.70
2013,12,13,04,07,-0.70
2013,12,13,04,08,-0.70
2013,12,13,04,09,-0.70
2013,12,13,04,10,-0.70
2013,12,13,04,11,-0.70
2013,12,13,04,12,-0.70
2013,12,13,04,13,-0.70
2013,12,13,04,14,-0.70
2013,12,13,04,15,-0.70
2013,12,13,04,19,-0.50
2013,12,13,04,20,-0.50
2013,12,13,04,21,-0.50
2013,12,13,04,22,-0.50
2013,12,13,04,23,-0.50
2013,12,13,04,24,-0.50
2013,12,13,04,25,-0.50
2013,12,13,04,26,-0.50
2013,12,13,04,27,-0.50
2013,12,13,04,28,-0.50
2013,12,13,04,29,-0.50
2013,12,13,04,30,-0.50
2013,12,13,04,34,-0.40
2013,12,13,04,35,-0.40
2013,12,13,04,36,-0.40
2013,12,13,04,37,-0.40
2013,12,13,04,38,-0.40
2013,12,13,04,39,-0.40
2013,12,13,04,40,-0.40
2013,12,13,04,41,-0.40
2013,12,13,04,42,-0.40
2013,12,13,04,43,-0.40
2013,12,13,04,44,-0.40
2013,12,13,04,45,-0.40
2013,12,13,04,49,-0.50
2013,12,13,04,50,-0.50
2013,12,13,04,51,-0.50
2013,12,13,04,52,-0.50
2013,12,13,04,53,-0.50
2013,12,13,04,54,-0.50
2013,12,13,04,55,-0.50
2013,12,13,04,56,-0.50
2013,12,13,04,57,-0.50
2013,12,13,04,58,-0.50
2013,12,13,04,59,-0.50
2013,12,13,05,00,-0.50
2013,12,13,05,04,-0.50
2013,12,13,05,05,-0.50
2013,12,13,05,06,-0.50
2013,12,13,05,07,-0.50
2013,12,13,05,08,-0.50
2013,12,13,05,09,-0.50
2013,12,13,05,10,-0.50
2013,12,13,05,11,-0.50
2013,12,13,05,12,-0.50
2013,12,13,05,13,-0.50
2013,12,13,05,14,-0.50
2013,12,13,05,15,-0.50
2013,12,13,05,19,-0.60
2013,12,13,05,20,-0.60
2013,12,13,05,21,-0.60
2013,12,13,05,22,-0.60
2013,12,13,05,23,-0.60
2013,12,13,05,24,-0.60
2013,12,13,05,25,-0.60
2013,12,13,05,26,-0.60
2013,12,13,05,27,-0.60
2013,12,13,05,28,-0.60
2013,12,13,05,29,-0.60
2013,12,13,05,30,-0.60
2013,12,13,05,34,-0.60
2013,12,13,05,35,-0.60
2013,12,13,05,36,-0.60
2013,12,13,05,37,-0.60
2013,12,13,05,38,-0.60
2013,12,13,05,39,-0.60
2013,12,13,05,40,-0.60
2013,12,13,05,41,-0.60
2013,12,13,05,42,-0.60
2013,12,13,05,43,-0.60
2013,12,13,05,44,-0.60
2013,12,13,05,45,-0.60
2013,12,13,05,49,-0.70
2013,12,13,05,50,-0.70
2013,12,13,05,51,-0.70
2013,12,13,05,52,-0.70
2013,12,13,05,53,-0.70
2013,12,13,05,54,-0.70
2013,12,13,05,55,-0.70
2013,12,13,05,56,-0.70
2013,12,13,05,57,-0.70
2013,12,13,05,58,-0.70
2013,12,13,05,59,-0.70
2013,12,13,06,00,-0.70
2013,12,13,06,04,-0.80
2013,12,13,06,05,-0.80
2013,12,13,06,06,-0.80
2013,12,13,06,07,-0.80
2013,12,13,06,08,-0.80
2013,12,13,06,09,-0.80
2013,12,13,06,10,-0.80
2013,12,13,06,11,-0.80
2013,12,13,06,12,-0.80
2013,12,13,06,13,-0.80
2013,12,13,06,14,-0.80
2013,12,13,06,15,-0.80
2013,12,13,06,19,-0.90
2013,12,13,06,20,-0.90
2013,12,13,06,21,-0.90
2013,12,13,06,22,-0.90
2013,12,13,06,23,-0.90
2013,12,13,06,24,-0.90
2013,12,13,06,25,-0.90
2013,12,13,06,26,-0.90
2013,12,13,06,27,-0.90
2013,12,13,06,28,-0.90
2013,12,13,06,29,-0.90
2013,12,13,06,30,-0.90
2013,12,13,06,34,-1.10
2013,12,13,06,35,-1.10
2013,12,13,06,36,-1.10
2013,12,13,06,37,-1.10
2013,12,13,06,38,-1.10
2013,12,13,06,39,-1.10
2013,12,13,06,40,-1.10
2013,12,13,06,41,-1.10
2013,12,13,06,42,-1.10
2013,12,13,06,43,-1.10
2013,12,13,06,44,-1.10
2013,12,13,06,45,-1.10
2013,12,13,06,49,-1.30
2013,12,13,06,50,-1.30
2013,12,13,06,51,-1.30
2013,12,13,06,52,-1.30
2013,12,13,06,53,-1.30
2013,12,13,06,54,-1.30
2013,12,13,06,55,-1.30
2013,12,13,06,56,-1.30
2013,12,13,06,57,-1.30
2013,12,13,06,58,-1.30
2013,12,13,06,59,-1.30
2013,12,13,07,00,-1.30
2013,12,13,07,04,-1.30
2013,12,13,07,05,-1.30
2013,12,13,07,06,-1.30
2013,12,13,07,07,-1.30
2013,12,13,07,08,-1.30
2013,12,13,07,09,-1.30
2013,12,13,07,10,-1.30
2013,12,13,07,11,-1.30
2013,12,13,07,12,-1.30
2013,12,13,07,13,-1.30
2013,12,13,07,14,-1.30
2013,12,13,07,15,-1.30
2013,12,13,07,19,-1.40
2013,12,13,07,20,-1.40
2013,12,13,07,21,-1.40
2013,12,13,07,22,-1.40
2013,12,13,07,23,-1.40
2013,12,13,07,24,-1.40
2013,12,13,07,25,-1.40
2013,12,13,07,26,-1.40
2013,12,13,07,27,-1.40
2013,12,13,07,28,-1.40
2013,12,13,07,29,-1.40
2013,12,13,07,30,-1.40
2013,12,13,07,34,-1.40
2013,12,13,07,35,-1.40
2013,12,13,07,36,-1.40
2013,12,13,07,37,-1.40
2013,12,13,07,38,-1.40
2013,12,13,07,39,-1.40
2013,12,13,07,40,-1.40
2013,12,13,07,41,-1.40
2013,12,13,07,42,-1.40
2013,12,13,07,43,-1.40
2013,12,13,07,44,-1.40
2013,12,13,07,45,-1.40
2013,12,13,07,49,-1.60
2013,12,13,07,50,-1.60
2013,12,13,07,51,-1.60
2013,12,13,07,52,-1.60
2013,12,13,07,53,-1.60
2013,12,13,07,54,-1.60
2013,12,13,07,55,-1.60
2013,12,13,07,56,-1.60
2013,12,13,07,57,-1.60
2013,12,13,07,58,-1.60
2013,12,13,07,59,-1.60
2013,12,13,08,00,-1.60
2013,12,13,08,04,-1.60
2013,12,13,08,05,-1.60
2013,12,13,08,06,-1.60
2013,12,13,08,07,-1.60
2013,12,13,08,08,-1.60
2013,12,13,08,09,-1.60
2013,12,13,08,10,-1.60
2013,12,13,08,11,-1.60
2013,12,13,08,12,-1.60
2013,12,13,08,13,-1.60
2013,12,13,08,14,-1.60
2013,12,13,08,15,-1.60
2013,12,13,08,19,-1.60
2013,12,13,08,20,-1.60
2013,12,13,08,21,-1.60
2013,12,13,08,22,-1.60
2013,12,13,08,23,-1.60
2013,12,13,08,24,-1.60
2013,12,13,08,25,-1.60
2013,12,13,08,26,-1.60
2013,12,13,08,27,-1.60
2013,12,13,08,28,-1.60
2013,12,13,08,29,-1.60
2013,12,13,08,30,-1.60
2013,12,13,08,34,-1.60
2013,12,13,08,35,-1.60
2013,12,13,08,36,-1.60
2013,12,13,08,37,-1.60
2013,12,13,08,38,-1.60
2013,12,13,08,39,-1.60
2013,12,13,08,40,-1.60
2013,12,13,08,41,-1.60
2013,12,13,08,42,-1.60
2013,12,13,08,43,-1.60
2013,12,13,08,44,-1.60
2013,12,13,08,45,-1.60
2013,12,13,08,49,-1.40
2013,12,13,08,50,-1.40
2013,12,13,08,51,-1.40
2013,12,13,08,52,-1.40
2013,12,13,08,53,-1.40
2013,12,13,08,54,-1.40
2013,12,13,08,55,-1.40
2013,12,13,08,56,-1.40
2013,12,13,08,57,-1.40
2013,12,13,08,58,-1.40
2013,12,13,08,59,-1.40
2013,12,13,09,00,-1.40
2013,12,13,09,04,-1.30
2013,12,13,09,05,-1.30
2013,12,13,09,06,-1.30
2013,12,13,09,07,-1.30
2013,12,13,09,08,-1.30
2013,12,13,09,09,-1.30
2013,12,13,09,10,-1.30
2013,12,13,09,11,-1.30
2013,12,13,09,12,-1.30
2013,12,13,09,13,-1.30
2013,12,13,09,14,-1.30
2013,12,13,09,15,-1.30
2013,12,13,09,19,-1.10
2013,12,13,09,20,-1.10
2013,12,13,09,21,-1.10
2013,12,13,09,22,-1.10
2013,12,13,09,23,-1.10
2013,12,13,09,24,-1.10
2013,12,13,09,25,-1.10
2013,12,13,09,26,-1.10
2013,12,13,09,27,-1.10
2013,12,13,09,28,-1.10
2013,12,13,09,29,-1.10
2013,12,13,09,30,-1.10
2013,12,13,09,34,-0.80
2013,12,13,09,35,-0.80
2013,12,13,09,36,-0.80
2013,12,13,09,37,-0.80
2013,12,13,09,38,-0.80
2013,12,13,09,39,-0.80
2013,12,13,09,40,-0.80
2013,12,13,09,41,-0.80
2013,12,13,09,42,-0.80
2013,12,13,09,43,-0.80
2013,12,13,09,44,-0.80
2013,12,13,09,45,-0.80
2013,12,13,09,49,-0.50
2013,12,13,09,50,-0.50
2013,12,13,09,51,-0.50
2013,12,13,09,52,-0.50
2013,12,13,09,53,-0.50
2013,12,13,09,54,-0.50
2013,12,13,09,55,-0.50
2013,12,13,09,56,-0.50
2013,12,13,09,57,-0.50
2013,12,13,09,58,-0.50
2013,12,13,09,59,-0.50
2013,12,13,10,00,-0.50
2013,12,13,10,04,-0.40
2013,12,13,10,05,-0.40
2013,12,13,10,06,-0.40
2013,12,13,10,07,-0.40
2013,12,13,10,08,-0.40
2013,12,13,10,09,-0.40
2013,12,13,10,10,-0.40
2013,12,13,10,11,-0.40
2013,12,13,10,12,-0.40
2013,12,13,10,13,-0.40
2013,12,13,10,14,-0.40
2013,12,13,10,15,-0.40
2013,12,13,10,19,-0.30
2013,12,13,10,20,-0.30
2013,12,13,10,21,-0.30
2013,12,13,10,22,-0.30
2013,12,13,10,23,-0.30
2013,12,13,10,24,-0.30
2013,12,13,10,25,-0.30
2013,12,13,10,26,-0.30
2013,12,13,10,27,-0.30
2013,12,13,10,28,-0.30
2013,12,13,10,29,-0.30
2013,12,13,10,30,-0.30
2013,12,13,10,34,-0.30
2013,12,13,10,35,-0.30
2013,12,13,10,36,-0.30
2013,12,13,10,37,-0.30
2013,12,13,10,38,-0.30
2013,12,13,10,39,-0.30
2013,12,13,10,40,-0.30
2013,12,13,10,41,-0.30
2013,12,13,10,42,-0.30
2013,12,13,10,43,-0.30
2013,12,13,10,44,-0.30
2013,12,13,10,45,-0.30
2013,12,13,10,49,-0.30
2013,12,13,10,50,-0.30
2013,12,13,10,51,-0.30
2013,12,13,10,52,-0.30
2013,12,13,10,53,-0.30
2013,12,13,10,54,-0.30
2013,12,13,10,55,-0.30
2013,12,13,10,56,-0.30
2013,12,13,10,57,-0.30
2013,12,13,10,58,-0.30
2013,12,13,10,59,-0.30
2013,12,13,11,00,-0.30
2013,12,13,11,04,-0.50
2013,12,13,11,05,-0.50
2013,12,13,11,06,-0.50
2013,12,13,11,07,-0.50
2013,12,13,11,08,-0.50
2013,12,13,11,09,-0.50
2013,12,13,11,10,-0.50
2013,12,13,11,11,-0.50
2013,12,13,11,12,-0.50
2013,12,13,11,13,-0.50
2013,12,13,11,14,-0.50
2013,12,13,11,15,-0.50
2013,12,13,11,19,-0.30
2013,12,13,11,20,-0.30
2013,12,13,11,21,-0.30
2013,12,13,11,22,-0.30
2013,12,13,11,23,-0.30
2013,12,13,11,24,-0.30
2013,12,13,11,25,-0.30
2013,12,13,11,26,-0.30
2013,12,13,11,27,-0.30
2013,12,13,11,28,-0.30
2013,12,13,11,29,-0.30
2013,12,13,11,30,-0.30
2013,12,13,11,34,-0.40
2013,12,13,11,35,-0.40
2013,12,13,11,36,-0.40
2013,12,13,11,37,-0.40
2013,12,13,11,38,-0.40
2013,12,13,11,39,-0.40
2013,12,13,11,40,-0.40
2013,12,13,11,41,-0.40
2013,12,13,11,42,-0.40
2013,12,13,11,43,-0.40
2013,12,13,11,44,-0.40
2013,12,13,11,45,-0.40
2013,12,13,11,49,-0.60
2013,12,13,11,50,-0.60
2013,12,13,11,51,-0.60
2013,12,13,11,52,-0.60
2013,12,13,11,53,-0.60
2013,12,13,11,54,-0.60
2013,12,13,11,55,-0.60
2013,12,13,11,56,-0.60
2013,12,13,11,57,-0.60
2013,12,13,11,58,-0.60
2013,12,13,11,59,-0.60
2013,12,13,12,00,-0.60
2013,12,13,12,04,-0.70
2013,12,13,12,05,-0.70
2013,12,13,12,06,-0.70
2013,12,13,12,07,-0.70
2013,12,13,12,08,-0.70
2013,12,13,12,09,-0.70
2013,12,13,12,10,-0.70
2013,12,13,12,11,-0.70
2013,12,13,12,12,-0.70
2013,12,13,12,13,-0.70
2013,12,13,12,14,-0.70
2013,12,13,12,15,-0.70
2013,12,13,12,19,-0.40
2013,12,13,12,20,-0.40
2013,12,13,12,21,-0.40
2013,12,13,12,22,-0.40
2013,12,13,12,23,-0.40
2013,12,13,12,24,-0.40
2013,12,13,12,25,-0.40
2013,12,13,12,26,-0.40
2013,12,13,12,27,-0.40
2013,12,13,12,28,-0.40
2013,12,13,12,29,-0.40
2013,12,13,12,30,-0.40
2013,12,13,12,34,-0.30
2013,12,13,12,35,-0.30
2013,12,13,12,36,-0.30
2013,12,13,12,37,-0.30
2013,12,13,12,38,-0.30
2013,12,13,12,39,-0.30
2013,12,13,12,40,-0.30
2013,12,13,12,41,-0.30
2013,12,13,12,42,-0.30
2013,12,13,12,43,-0.30
2013,12,13,12,44,-0.30
2013,12,13,12,45,-0.30
2013,12,13,12,49,-0.30
2013,12,13,12,50,-0.30
2013,12,13,12,51,-0.30
2013,12,13,12,52,-0.30
2013,12,13,12,53,-0.30
2013,12,13,12,54,-0.30
2013,12,13,12,55,-0.30
2013,12,13,12,56,-0.30
2013,12,13,12,57,-0.30
2013,12,13,12,58,-0.30
2013,12,13,12,59,-0.30
2013,12,13,13,00,-0.30
2013,12,13,13,04,-0.10
2013,12,13,13,05,-0.10
2013,12,13,13,06,-0.10
2013,12,13,13,07,-0.10
2013,12,13,13,08,-0.10
2013,12,13,13,09,-0.10
2013,12,13,13,10,-0.10
2013,12,13,13,11,-0.10
2013,12,13,13,12,-0.10
2013,12,13,13,13,-0.10
2013,12,13,13,14,-0.10
2013,12,13,13,15,-0.10
2013,12,13,13,19,-0.10
2013,12,13,13,20,-0.10
2013,12,13,13,21,-0.10
2013,12,13,13,22,-0.10
2013,12,13,13,23,-0.10
2013,12,13,13,24,-0.10
2013,12,13,13,25,-0.10
2013,12,13,13,26,-0.10
2013,12,13,13,27,-0.10
2013,12,13,13,28,-0.10
2013,12,13,13,29,-0.10
2013,12,13,13,30,-0.10
2013,12,13,13,34,0.00
2013,12,13,13,35,0.00
2013,12,13,13,36,0.00
2013,12,13,13,37,0.00
2013,12,13,13,38,0.00
2013,12,13,13,39,0.00
2013,12,13,13,40,0.00
2013,12,13,13,41,0.00
2013,12,13,13,42,0.00
2013,12,13,13,43,0.00
2013,12,13,13,44,0.00
2013,12,13,13,45,0.00
2013,12,13,13,49,0.00
2013,12,13,13,50,0.00
2013,12,13,13,51,0.00
2013,12,13,13,52,0.00
2013,12,13,13,53,0.00
2013,12,13,13,54,0.00
2013,12,13,13,55,0.00
2013,12,13,13,56,0.00
2013,12,13,13,57,0.00
2013,12,13,13,58,0.00
2013,12,13,13,59,0.00
2013,12,13,14,00,0.00
2013,12,13,14,04,0.00
2013,12,13,14,05,0.00
2013,12,13,14,06,0.00
2013,12,13,14,07,0.00
2013,12,13,14,08,0.00
2013,12,13,14,09,0.00
2013,12,13,14,10,0.00
2013,12,13,14,11,0.00
2013,12,13,14,12,0.00
2013,12,13,14,13,0.00
2013,12,13,14,15,0.00
2013,12,13,14,19,-0.10
2013,12,13,14,20,-0.10
2013,12,13,14,21,-0.10
2013,12,13,14,22,-0.10
2013,12,13,14,23,-0.10
2013,12,13,14,24,-0.10
2013,12,13,14,25,-0.10
2013,12,13,14,26,-0.10
2013,12,13,14,27,-0.10
2013,12,13,14,28,-0.10
2013,12,13,14,29,-0.10
2013,12,13,14,30,-0.10
2013,12,13,14,34,-0.20
2013,12,13,14,35,-0.20
2013,12,13,14,36,-0.20
2013,12,13,14,37,-0.20
2013,12,13,14,38,-0.20
2013,12,13,14,39,-0.20
2013,12,13,14,40,-0.20
2013,12,13,14,41,-0.20
2013,12,13,14,42,-0.20
2013,12,13,14,43,-0.20
2013,12,13,14,44,-0.20
2013,12,13,14,45,-0.20
2013,12,13,14,49,-0.30
2013,12,13,14,50,-0.30
2013,12,13,14,51,-0.30
2013,12,13,14,52,-0.30
2013,12,13,14,53,-0.30
2013,12,13,14,54,-0.30
2013,12,13,14,55,-0.30
2013,12,13,14,56,-0.30
2013,12,13,14,57,-0.30
2013,12,13,14,58,-0.30
2013,12,13,14,59,-0.30
2013,12,13,15,00,-0.30
2013,12,13,15,04,-0.30
2013,12,13,15,05,-0.30
2013,12,13,15,06,-0.30
2013,12,13,15,07,-0.30
2013,12,13,15,08,-0.30
2013,12,13,15,09,-0.30
2013,12,13,15,10,-0.30
2013,12,13,15,11,-0.30
2013,12,13,15,12,-0.30
2013,12,13,15,13,-0.30
2013,12,13,15,14,-0.30
2013,12,13,15,15,-0.30
2013,12,13,15,19,-0.30
2013,12,13,15,20,-0.30
2013,12,13,15,21,-0.30
2013,12,13,15,22,-0.30
2013,12,13,15,23,-0.30
2013,12,13,15,24,-0.30
2013,12,13,15,25,-0.30
2013,12,13,15,26,-0.30
2013,12,13,15,27,-0.30
2013,12,13,15,28,-0.30
2013,12,13,15,29,-0.30
2013,12,13,15,30,-0.30
2013,12,13,15,34,-0.60
2013,12,13,15,35,-0.60
2013,12,13,15,36,-0.60
2013,12,13,15,37,-0.60
2013,12,13,15,38,-0.60
2013,12,13,15,39,-0.60
2013,12,13,15,40,-0.60
2013,12,13,15,41,-0.60
2013,12,13,15,42,-0.60
2013,12,13,15,43,-0.60
2013,12,13,15,44,-0.60
2013,12,13,15,45,-0.60
2013,12,13,15,49,-0.70
2013,12,13,15,50,-0.70
2013,12,13,15,51,-0.70
2013,12,13,15,52,-0.70
2013,12,13,15,53,-0.70
2013,12,13,15,54,-0.70
2013,12,13,15,55,-0.70
2013,12,13,15,56,-0.70
2013,12,13,15,57,-0.70
2013,12,13,15,58,-0.70
2013,12,13,15,59,-0.70
2013,12,13,16,00,-0.70
2013,12,13,16,04,-0.80
2013,12,13,16,05,-0.80
2013,12,13,16,06,-0.80
2013,12,13,16,07,-0.80
2013,12,13,16,08,-0.80
2013,12,13,16,09,-0.80
2013,12,13,16,10,-0.80
2013,12,13,16,11,-0.80
2013,12,13,16,12,-0.80
2013,12,13,16,13,-0.80
2013,12,13,16,14,-0.80
2013,12,13,16,15,-0.80
2013,12,13,16,19,-0.90
2013,12,13,16,20,-0.90
2013,12,13,16,21,-0.90
2013,12,13,16,22,-0.90
2013,12,13,16,23,-0.90
2013,12,13,16,24,-0.90
2013,12,13,16,25,-0.90
2013,12,13,16,26,-0.90
2013,12,13,16,27,-0.90
2013,12,13,16,28,-0.90
2013,12,13,16,29,-0.90
2013,12,13,16,30,-0.90
2013,12,13,16,34,-1.10
2013,12,13,16,35,-1.10
2013,12,13,16,36,-1.10
2013,12,13,16,37,-1.10
2013,12,13,16,38,-1.10
2013,12,13,16,39,-1.10
2013,12,13,16,40,-1.10
2013,12,13,16,41,-1.10
2013,12,13,16,42,-1.10
2013,12,13,16,43,-1.10
2013,12,13,16,44,-1.10
2013,12,13,16,45,-1.10
2013,12,13,16,49,-1.20
2013,12,13,16,50,-1.20
2013,12,13,16,51,-1.20
2013,12,13,16,52,-1.20
2013,12,13,16,53,-1.20
2013,12,13,16,54,-1.20
2013,12,13,16,55,-1.20
2013,12,13,16,56,-1.20
2013,12,13,16,57,-1.20
2013,12,13,16,58,-1.20
2013,12,13,16,59,-1.20
2013,12,13,17,00,-1.20
2013,12,13,17,04,-1.20
2013,12,13,17,05,-1.20
2013,12,13,17,06,-1.20
2013,12,13,17,07,-1.20
2013,12,13,17,08,-1.20
2013,12,13,17,09,-1.20
2013,12,13,17,10,-1.20
2013,12,13,17,11,-1.20
2013,12,13,17,12,-1.20
2013,12,13,17,13,-1.20
2013,12,13,17,14,-1.20
2013,12,13,17,15,-1.20
2013,12,13,17,19,-1.20
2013,12,13,17,20,-1.20
2013,12,13,17,21,-1.20
2013,12,13,17,22,-1.20
2013,12,13,17,23,-1.20
2013,12,13,17,24,-1.20
2013,12,13,17,25,-1.20
2013,12,13,17,26,-1.20
2013,12,13,17,27,-1.20
2013,12,13,17,28,-1.20
2013,12,13,17,29,-1.20
2013,12,13,17,30,-1.20
2013,12,13,17,34,-1.20
2013,12,13,17,35,-1.20
2013,12,13,17,36,-1.20
2013,12,13,17,37,-1.20
2013,12,13,17,38,-1.20
2013,12,13,17,39,-1.20
2013,12,13,17,40,-1.20
2013,12,13,17,41,-1.20
2013,12,13,17,42,-1.20
2013,12,13,17,43,-1.20
2013,12,13,17,44,-1.20
2013,12,13,17,45,-1.20
2013,12,13,17,49,-1.20
2013,12,13,17,50,-1.20
2013,12,13,17,51,-1.20
2013,12,13,17,52,-1.20
2013,12,13,17,53,-1.20
2013,12,13,17,54,-1.20
2013,12,13,17,55,-1.20
2013,12,13,17,56,-1.20
2013,12,13,17,57,-1.20
2013,12,13,17,58,-1.20
2013,12,13,17,59,-1.20
2013,12,13,18,00,-1.20
2013,12,13,18,04,-1.30
2013,12,13,18,05,-1.30
2013,12,13,18,06,-1.30
2013,12,13,18,07,-1.30
2013,12,13,18,08,-1.30
2013,12,13,18,09,-1.30
2013,12,13,18,10,-1.30
2013,12,13,18,11,-1.30
2013,12,13,18,12,-1.30
2013,12,13,18,13,-1.30
2013,12,13,18,14,-1.30
2013,12,13,18,15,-1.30
2013,12,13,18,19,-1.40
2013,12,13,18,20,-1.40
2013,12,13,18,21,-1.40
2013,12,13,18,22,-1.40
2013,12,13,18,23,-1.40
2013,12,13,18,24,-1.40
2013,12,13,18,25,-1.40
2013,12,13,18,26,-1.40
2013,12,13,18,27,-1.40
2013,12,13,18,28,-1.40
2013,12,13,18,29,-1.40
2013,12,13,18,30,-1.40
2013,12,13,18,34,-1.60
2013,12,13,18,35,-1.60
2013,12,13,18,36,-1.60
2013,12,13,18,37,-1.60
2013,12,13,18,38,-1.60
2013,12,13,18,39,-1.60
2013,12,13,18,40,-1.60
2013,12,13,18,41,-1.60
2013,12,13,18,42,-1.60
2013,12,13,18,43,-1.60
2013,12,13,18,44,-1.60
2013,12,13,18,45,-1.60
2013,12,13,18,49,-1.70
2013,12,13,18,50,-1.70
2013,12,13,18,51,-1.70
2013,12,13,18,52,-1.70
2013,12,13,18,53,-1.70
2013,12,13,18,54,-1.70
2013,12,13,18,55,-1.70
2013,12,13,18,56,-1.70
2013,12,13,18,57,-1.70
2013,12,13,18,58,-1.70
2013,12,13,18,59,-1.70
2013,12,13,19,00,-1.70
2013,12,13,19,04,-1.70
2013,12,13,19,05,-1.70
2013,12,13,19,06,-1.70
2013,12,13,19,07,-1.70
2013,12,13,19,08,-1.70
2013,12,13,19,09,-1.70
2013,12,13,19,10,-1.70
2013,12,13,19,11,-1.70
2013,12,13,19,12,-1.70
2013,12,13,19,13,-1.70
2013,12,13,19,14,-1.70
2013,12,13,19,15,-1.70
2013,12,13,19,19,-1.70
2013,12,13,19,20,-1.70
2013,12,13,19,21,-1.70
2013,12,13,19,22,-1.70
2013,12,13,19,23,-1.70
2013,12,13,19,24,-1.70
2013,12,13,19,25,-1.70
2013,12,13,19,26,-1.70
2013,12,13,19,27,-1.70
2013,12,13,19,28,-1.70
2013,12,13,19,29,-1.70
2013,12,13,19,30,-1.70
2013,12,13,19,34,-1.60
2013,12,13,19,35,-1.60
2013,12,13,19,36,-1.60
2013,12,13,19,37,-1.60
2013,12,13,19,38,-1.60
2013,12,13,19,39,-1.60
2013,12,13,19,40,-1.60
2013,12,13,19,41,-1.60
2013,12,13,19,42,-1.60
2013,12,13,19,43,-1.60
2013,12,13,19,44,-1.60
2013,12,13,19,45,-1.60
2013,12,13,19,49,-1.60
2013,12,13,19,50,-1.60
2013,12,13,19,51,-1.60
2013,12,13,19,52,-1.60
2013,12,13,19,53,-1.60
2013,12,13,19,54,-1.60
2013,12,13,19,55,-1.60
2013,12,13,19,56,-1.60
2013,12,13,19,57,-1.60
2013,12,13,19,58,-1.60
2013,12,13,19,59,-1.60
2013,12,13,20,00,-1.60
2013,12,13,20,04,-1.70
2013,12,13,20,05,-1.70
2013,12,13,20,06,-1.70
2013,12,13,20,07,-1.70
2013,12,13,20,08,-1.70
2013,12,13,20,09,-1.70
2013,12,13,20,10,-1.70
2013,12,13,20,11,-1.70
2013,12,13,20,12,-1.70
2013,12,13,20,13,-1.70
2013,12,13,20,14,-1.70
2013,12,13,20,15,-1.70
2013,12,13,20,19,-1.70
2013,12,13,20,20,-1.70
2013,12,13,20,21,-1.70
2013,12,13,20,22,-1.70
2013,12,13,20,23,-1.70
2013,12,13,20,24,-1.70
2013,12,13,20,25,-1.70
2013,12,13,20,26,-1.70
2013,12,13,20,27,-1.70
2013,12,13,20,28,-1.70
2013,12,13,20,29,-1.70
2013,12,13,20,30,-1.70
2013,12,13,20,34,-1.80
2013,12,13,20,35,-1.80
2013,12,13,20,36,-1.80
2013,12,13,20,37,-1.80
2013,12,13,20,38,-1.80
2013,12,13,20,39,-1.80
2013,12,13,20,40,-1.80
2013,12,13,20,41,-1.80
2013,12,13,20,42,-1.80
2013,12,13,20,43,-1.80
2013,12,13,20,44,-1.80
2013,12,13,20,45,-1.80
2013,12,13,20,49,-1.70
2013,12,13,20,50,-1.70
2013,12,13,20,51,-1.70
2013,12,13,20,52,-1.70
2013,12,13,20,53,-1.70
2013,12,13,20,54,-1.70
2013,12,13,20,55,-1.70
2013,12,13,20,56,-1.70
2013,12,13,20,57,-1.70
2013,12,13,20,58,-1.70
2013,12,13,20,59,-1.70
2013,12,13,21,00,-1.70
2013,12,13,21,04,-1.50
2013,12,13,21,05,-1.50
2013,12,13,21,06,-1.50
2013,12,13,21,07,-1.50
2013,12,13,21,08,-1.50
2013,12,13,21,09,-1.50
2013,12,13,21,10,-1.50
2013,12,13,21,11,-1.50
2013,12,13,21,12,-1.50
2013,12,13,21,13,-1.50
2013,12,13,21,14,-1.50
2013,12,13,21,15,-1.50
2013,12,13,21,19,-1.60
2013,12,13,21,20,-1.60
2013,12,13,21,21,-1.60
2013,12,13,21,22,-1.60
2013,12,13,21,23,-1.60
2013,12,13,21,24,-1.60
2013,12,13,21,25,-1.60
2013,12,13,21,26,-1.60
2013,12,13,21,27,-1.60
2013,12,13,21,28,-1.60
2013,12,13,21,29,-1.60
2013,12,13,21,30,-1.60
2013,12,13,21,34,-1.70
2013,12,13,21,35,-1.70
2013,12,13,21,36,-1.70
2013,12,13,21,37,-1.70
2013,12,13,21,38,-1.70
2013,12,13,21,39,-1.70
2013,12,13,21,40,-1.70
2013,12,13,21,41,-1.70
2013,12,13,21,42,-1.70